Tracking 25710 objects as of 5-Jul-2022
HD Live streaming from Space Station
objects crossing your sky now

FENGYUN 1C DEB

Track FENGYUN 1C DEB now!
10-day predictions


NORAD ID: 31060
Int'l Code: 1999-025BFE
Perigee: 495.3 km
Apogee: 543.5 km
Inclination: 99.2 °
Period: 94.9 minutes
Semi major axis: 6890 km
RCS: 0.0121 m2 (small)
Launch date: May 10, 1999
Source: People's Republic of China (PRC)
Launch site: Taiyaun Space Center, China (TSC)

Note: This is SATELLITE DEBRIS
aabbcc
Your satellite tracking list
Your tracking list is empty




NASA's NSSDC Master Catalog

Two Line Element Set (TLE):
1 31060U 99025BFE 22185.32047418  .00051221  00000-0  24775-2 0  9990
2 31060  99.1839 201.5029 0034991 358.3079   1.8025 15.17870439822587
Source of the keplerian elements: AFSPC